TimeCST,TemperatureF,Dew PointF,Humidity,Sea Level PressureIn,VisibilityMPH,Wind Direction,Wind SpeedMPH,Gust SpeedMPH,PrecipitationIn,Events,Conditions,WindDirDegrees,DateUTC
12:55 AM,65.3,64.2,96,30.04,10.0,SE,4.6,-,N/A,,Mostly Cloudy,140,2013-01-13 06:55:00
1:07 AM,64.4,64.4,100,30.04,10.0,SSE,3.5,-,N/A,,Mostly Cloudy,160,2013-01-13 07:07:00
1:08 AM,64.4,64.4,100,30.04,10.0,SSE,3.5,-,N/A,,Mostly Cloudy,160,2013-01-13 07:08:00
1:14 AM,64.4,64.4,100,30.04,10.0,SSE,4.6,-,N/A,,Mostly Cloudy,160,2013-01-13 07:14:00
1:16 AM,64.4,64.4,100,30.05,10.0,SSE,4.6,-,N/A,,Mostly Cloudy,160,2013-01-13 07:16:00
1:25 AM,64.4,64.4,100,30.05,10.0,SSE,4.6,-,N/A,,Mostly Cloudy,160,2013-01-13 07:25:00
1:29 AM,64.4,64.4,100,30.05,10.0,South,3.5,-,N/A,,Mostly Cloudy,170,2013-01-13 07:29:00
1:55 AM,65.1,64.0,96,30.04,10.0,Calm,Calm,-,N/A,,Mostly Cloudy,0,2013-01-13 07:55:00
2:06 AM,64.4,64.4,100,30.04,10.0,SE,3.5,-,N/A,,Scattered Clouds,130,2013-01-13 08:06:00
2:55 AM,63.7,63.1,98,30.02,7.0,SE,8.1,-,N/A,,Scattered Clouds,140,2013-01-13 08:55:00
2:59 AM,64.4,64.4,100,30.02,8.0,SE,5.8,-,N/A,,Mostly Cloudy,140,2013-01-13 08:59:00
3:55 AM,64.6,63.7,97,30.01,10.0,SE,8.1,-,N/A,,Scattered Clouds,140,2013-01-13 09:55:00
4:41 AM,64.4,62.6,94,30.01,10.0,SE,6.9,-,N/A,,Mostly Cloudy,130,2013-01-13 10:41:00
4:44 AM,64.4,62.6,94,30.01,10.0,SE,5.8,-,N/A,,Mostly Cloudy,130,2013-01-13 10:44:00
4:49 AM,64.4,64.4,100,30.01,10.0,SE,5.8,-,N/A,,Mostly Cloudy,140,2013-01-13 10:49:00
4:50 AM,64.4,64.4,100,30.02,10.0,SE,5.8,-,N/A,,Mostly Cloudy,140,2013-01-13 10:50:00
4:55 AM,64.8,63.9,97,30.01,10.0,SE,5.8,-,N/A,,Mostly Cloudy,130,2013-01-13 10:55:00
5:03 AM,64.4,64.4,100,30.02,10.0,SE,5.8,-,N/A,,Overcast,140,2013-01-13 11:03:00
5:55 AM,65.5,64.4,96,30.04,10.0,SSE,6.9,-,N/A,,Overcast,150,2013-01-13 11:55:00
6:18 AM,66.2,64.4,94,30.05,10.0,SSE,5.8,-,N/A,,Overcast,150,2013-01-13 12:18:00
6:33 AM,66.2,64.4,94,30.05,10.0,SE,5.8,-,N/A,,Overcast,140,2013-01-13 12:33:00
6:55 AM,66.2,64.4,94,30.06,10.0,SE,8.1,-,N/A,,Overcast,140,2013-01-13 12:55:00
7:37 AM,66.2,64.4,94,30.06,10.0,SE,8.1,-,N/A,,Scattered Clouds,130,2013-01-13 13:37:00
7:38 AM,66.2,64.4,94,30.06,10.0,SE,8.1,-,N/A,,Mostly Cloudy,130,2013-01-13 13:38:00
7:40 AM,66.2,64.4,94,30.06,10.0,SE,6.9,-,N/A,,Mostly Cloudy,130,2013-01-13 13:40:00
7:48 AM,66.2,64.4,94,30.06,10.0,SSE,6.9,-,N/A,,Scattered Clouds,150,2013-01-13 13:48:00
7:54 AM,66.2,64.4,94,30.06,10.0,SE,10.4,-,N/A,,Mostly Cloudy,140,2013-01-13 13:54:00
7:55 AM,66.9,64.9,93,30.06,10.0,SE,9.2,-,N/A,,Mostly Cloudy,140,2013-01-13 13:55:00
8:55 AM,68.7,64.9,88,30.07,10.0,SSE,12.7,-,N/A,,Mostly Cloudy,160,2013-01-13 14:55:00
9:46 AM,71.6,64.4,78,30.07,10.0,SSE,11.5,-,N/A,,Mostly Cloudy,160,2013-01-13 15:46:00
9:55 AM,71.8,64.6,78,30.06,10.0,South,15.0,-,N/A,,Mostly Cloudy,170,2013-01-13 15:55:00
10:55 AM,73.6,64.6,73,30.05,10.0,South,12.7,-,N/A,,Mostly Cloudy,170,2013-01-13 16:55:00
11:15 AM,75.2,64.4,69,30.04,10.0,South,15.0,-,N/A,,Mostly Cloudy,180,2013-01-13 17:15:00
11:55 AM,77.5,63.9,63,30.04,10.0,South,16.1,23.0,N/A,,Mostly Cloudy,180,2013-01-13 17:55:00
12:55 PM,78.1,61.7,57,30.02,10.0,South,15.0,21.9,N/A,,Scattered Clouds,190,2013-01-13 18:55:00
1:55 PM,77.9,61.3,57,30.02,10.0,South,17.3,25.3,N/A,,Clear,180,2013-01-13 19:55:00
2:55 PM,76.6,63.7,64,30.02,10.0,South,13.8,-,N/A,,Scattered Clouds,180,2013-01-13 20:55:00
3:55 PM,75.2,64.6,69,30.03,10.0,South,15.0,-,N/A,,Clear,170,2013-01-13 21:55:00
4:55 PM,73.0,64.2,74,30.04,10.0,South,8.1,-,N/A,,Mostly Cloudy,170,2013-01-13 22:55:00
5:55 PM,72.3,63.9,75,30.05,10.0,South,9.2,-,N/A,,Mostly Cloudy,170,2013-01-13 23:55:00
6:41 PM,71.6,64.4,78,30.05,10.0,South,9.2,-,N/A,,Mostly Cloudy,170,2013-01-14 00:41:00
6:55 PM,71.2,64.4,79,30.05,10.0,SSE,6.9,-,N/A,,Mostly Cloudy,160,2013-01-14 00:55:00
7:05 PM,71.6,64.4,78,30.06,10.0,SSE,9.2,-,N/A,,Mostly Cloudy,150,2013-01-14 01:05:00
7:55 PM,70.9,64.9,81,30.06,10.0,SSE,12.7,-,N/A,,Mostly Cloudy,160,2013-01-14 01:55:00
8:03 PM,71.6,64.4,78,30.05,10.0,SSE,11.5,-,N/A,,Mostly Cloudy,160,2013-01-14 02:03:00
8:55 PM,70.3,65.1,83,30.05,10.0,SSE,10.4,-,N/A,,Overcast,150,2013-01-14 02:55:00
8:59 PM,69.8,64.4,83,30.05,7.0,SSE,9.2,-,N/A,Rain,Heavy Rain,160,2013-01-14 02:59:00
9:10 PM,69.8,66.2,88,30.06,10.0,SSE,8.1,-,N/A,,Overcast,150,2013-01-14 03:10:00
9:18 PM,69.8,66.2,88,30.06,10.0,South,8.1,-,N/A,,Overcast,170,2013-01-14 03:18:00
9:55 PM,68.9,65.8,90,30.07,10.0,SSE,10.4,-,0.00,,Overcast,160,2013-01-14 03:55:00
10:10 PM,68.0,66.2,94,30.07,10.0,SSE,11.5,-,N/A,,Overcast,160,2013-01-14 04:10:00
10:39 PM,68.0,66.2,94,30.06,10.0,SSE,10.4,-,N/A,,Light Drizzle,150,2013-01-14 04:39:00
10:49 PM,68.0,66.2,94,30.07,10.0,SSE,9.2,-,N/A,,Overcast,160,2013-01-14 04:49:00
10:55 PM,68.4,66.6,94,30.07,10.0,SSE,10.4,-,0.00,,Overcast,160,2013-01-14 04:55:00
11:14 PM,68.0,66.2,94,30.06,10.0,SSE,9.2,-,N/A,,Overcast,160,2013-01-14 05:14:00
11:38 PM,68.0,66.2,94,30.05,10.0,SSE,10.4,-,N/A,,Overcast,150,2013-01-14 05:38:00
11:55 PM,68.4,66.6,94,30.05,10.0,SSE,11.5,-,N/A,,Overcast,160,2013-01-14 05:55:00